Regional Weather Roundup
Issued by NWS Little Rock, AR

Home | Current Version | Previous Version | Graphics & Text | Print | Product List | Glossary On
Versions: 1 2 3 4 5 6 7 8 9 10 11 12 13 14 15 16 17 18 19 20 21 22 23 24 25 26 27 28 29 30 31 32 33 34 35 36 37 38 39 40 41 42 43 44 45 46 47 48 49 50
117
ASUS44 KLZK 261705
RWRLZK

WEATHER ROUNDUP FOR ARKANSAS
NATIONAL WEATHER SERVICE LITTLE ROCK AR
1200 PM CDT MON SEP 26 2016

NOTE: "FAIR" INDICATES FEW OR NO CLOUDS BELOW 12,000 FEET WITH NO
SIGNIFICANT WEATHER AND/OR OBSTRUCTIONS TO VISIBILITY.

ARZ001-003-010-029-261800-
NORTHWEST ARKANSAS

CITY           SKY/WX    TMP DP  RH WIND       PRES   REMARKS
FAYETTEVILLE   SUNNY     69  49  48 NE10      30.25S
FORT SMITH     PTSUNNY   72  51  47 E6        30.22F
HARRISON       CLOUDY    69  48  47 N9        30.24F
BENTONVILLE    SUNNY     68  46  45 NE12      30.26S
ROGERS         SUNNY     68  49  50 N10       30.27S
SILOAM SPGS    SUNNY     70  46  43 NE8       30.26S
HIGHFILL       SUNNY     71  52  50 N13       30.26S
SPRINGDALE     SUNNY     68  48  49 N10       30.27S
$$

ARZ004-005-016-261800-
NORTH CENTRAL ARKANSAS

CITY           SKY/WX    TMP DP  RH WIND       PRES   REMARKS
BATESVILLE     CLOUDY    64  52  63 N6        30.20F
FLIPPIN        PTSUNNY   72  52  49 N12       30.20F
MTN HOME       PTSUNNY   69  51  52 E7        30.22S
$$

ARZ040-041-261800-
WEST CENTRAL ARKANSAS

CITY           SKY/WX    TMP DP  RH WIND       PRES   REMARKS
MENA           CLOUDY    68  61  77 N5        30.22S
MOUNT IDA      PTSUNNY   70  53  54 VRB3      30.19S
$$

ARZ009-017-025-026-028-261800-
NORTHEAST ARKANSAS

CITY           SKY/WX    TMP DP  RH WIND       PRES   REMARKS
CORNING          N/A     66  55  68 N9        30.18F
JONESBORO      CLOUDY    69  51  52 N9        30.17F
NEWPORT        HAZE      68  52  56 N13       30.18S VSB 3/4
WALNUT RIDGE   CLOUDY    66  52  59 N10       30.19S
BLYTHEVILLE    CLOUDY    70  54  56 N16       30.15F
NW BLYTHEVILLE CLOUDY    68  55  64 NE16G25   30.16S
$$

ARZ022-023-033-042-044-261800-
CENTRAL ARKANSAS

CITY           SKY/WX    TMP DP  RH WIND       PRES   REMARKS
LITTLE ROCK    CLOUDY    73  49  42 N17G29    30.18F
JACKSONVILLE   MOSUNNY   71  52  50 NE13G18   30.18S
HOT SPRINGS    CLOUDY    71  51  49 NE13G20   30.19S
RUSSELLVILLE   CLOUDY    70  52  52 VRB5      30.21S
$$

ARZ036-261800-
EAST ARKANSAS

CITY           SKY/WX    TMP DP  RH WIND       PRES   REMARKS
WEST MEMPHIS   CLOUDY    72  57  59 N17G25    30.13S
$$

ARZ050-053-066-070-073-261800-
SOUTHWEST ARKANSAS

CITY           SKY/WX    TMP DP  RH WIND       PRES   REMARKS
ARKADELPHIA    FAIR      71  59  65 NE10      30.17F
TEXARKANA      CLOUDY    75  64  68 NE10      30.15S
EL DORADO      MOSUNNY   75  60  59 N9        30.14R
DE QUEEN       CLOUDY    72  63  73 NE3       30.15S
$$

ARZ056-057-069-261800-
SOUTHEAST ARKANSAS

CITY           SKY/WX    TMP DP  RH WIND       PRES   REMARKS
PINE BLUFF     CLOUDY    72  56  57 N16G24    30.16S
STUTTGART      CLOUDY    73  55  53 N15       30.16S
MONTICELLO     CLOUDY    73  58  59 N8G20     30.13F

$$






USA.gov is the U.S. government's official web portal to all federal, state and local government web resources and services.